N1HUI Branford CT US current weather conditions

sailwx.info

Wind from 205 at 2 knots

Air temperature 22.2° C
Dewpoint 21.6° C

Last reported at 2020-Aug-09 08:00 UTC.
Time now 2020-Aug-09 08:38 UTC

Location: N 41°16' W 072°49'.
View on Google Maps.

See reports from other nearby stations

  
Tides and Currents Weather Stations Pressure Air Temp Water Temp Dewpoint Dewpoint Depression Visibility Wind Speed Wind Dir Waves Ship Positions
date/time (UTC)wind fromknots sea level pressurealtimeterstation pressurevisibilityair tempwater tempwave heightnotes
2020-Aug-09 08:00 205 2 22.2
2020-Aug-09 07:46 208 21.7
2020-Aug-09 07:32 208 21.7
2020-Aug-09 07:17 208 21.7
2020-Aug-09 07:00 176 0 22.2
2020-Aug-09 06:45 208 21.7
2020-Aug-09 06:31 208 21.7
2020-Aug-09 06:16 208 21.7
2020-Aug-09 06:00 181 1 22.2
2020-Aug-09 05:46 208 20.6
2020-Aug-09 05:31 208 20.6
2020-Aug-09 05:16 208 21.1
2020-Aug-09 05:00 220 1 22.8
2020-Aug-09 04:47 208 21.1
2020-Aug-09 04:32 208 21.1
2020-Aug-09 04:16 208 21.7
2020-Aug-09 04:00 223 4 22.8
2020-Aug-09 03:46 208 22.2
2020-Aug-09 03:45 231 4 22.8
2020-Aug-09 03:32 237 2 22.8
2020-Aug-09 03:17 208 2 22.8
2020-Aug-09 03:01 205 2 22.8
2020-Aug-09 02:46 217 1 22.8
2020-Aug-09 02:32 210 1 22.8
2020-Aug-09 02:17 211 2 23.3
2020-Aug-09 02:01 232 2 23.3
2020-Aug-09 01:46 205 23.3
2020-Aug-09 01:31 205 23.3
2020-Aug-09 01:16 210 23.3
2020-Aug-09 01:00 236 2 23.9
2020-Aug-09 00:46 222 23.9
2020-Aug-09 00:31 166 2 23.9
2020-Aug-09 00:15 220 0 gusting 5 24.4
2020-Aug-09 00:01 186 4 24.4
2020-Aug-08 23:46 166 4 24.4
2020-Aug-08 23:31 149 4 24.4
2020-Aug-08 23:16 188 5 25.0
2020-Aug-08 23:01 164 5 25.0
2020-Aug-08 22:46 159 6 25.0
2020-Aug-08 22:31 162 5 25.6
2020-Aug-08 22:16 219 25.6
2020-Aug-08 22:02 187 6 26.1
2020-Aug-08 21:47 160 6 26.7
2020-Aug-08 21:31 182 1 gusting 6 26.1
2020-Aug-08 21:16 174 0 gusting 4 26.7
2020-Aug-08 21:01 151 6 26.7
2020-Aug-08 20:45 206 0 gusting 5 26.7
2020-Aug-08 20:31 198 0 gusting 3 27.2
2020-Aug-08 20:15 142 27.2
2020-Aug-08 20:00 132 4 26.7
2020-Aug-08 19:46 131 4 26.7
2020-Aug-08 19:31 220 2 gusting 6 27.2
2020-Aug-08 19:15 231 2 gusting 6 26.7
2020-Aug-08 19:01 230 0 gusting 6 26.7
2020-Aug-08 18:45 140 6 26.1
2020-Aug-08 18:31 173 6 26.1
2020-Aug-08 18:16 135 6 25.6
2020-Aug-08 18:01 238 1 gusting 6 26.7
2020-Aug-08 17:45 138 6 26.1
2020-Aug-08 17:30 235 1 gusting 6 26.1
2020-Aug-08 17:15 165 1 gusting 5 26.1
2020-Aug-08 17:00 225 2 gusting 6 25.6
2020-Aug-08 16:45 207 2 gusting 6 25.6
2020-Aug-08 16:30 202 2 gusting 6 26.1
2020-Aug-08 16:15 177 6 25.0
2020-Aug-08 16:00 229 2 gusting 6 26.7
2020-Aug-08 15:45 162 0 gusting 5 26.7
2020-Aug-08 15:30 180 0 gusting 4 26.7
2020-Aug-08 15:15 175 0 gusting 5 26.1
2020-Aug-08 15:00 146 6 gusting 6 25.0
2020-Aug-08 14:45 203 1 gusting 4 27.2
2020-Aug-08 14:30 137 6 24.4
2020-Aug-08 14:15 355 27.2
2020-Aug-08 14:00 360 0 gusting 3 26.7
2020-Aug-08 13:45 360 26.7
2020-Aug-08 13:30 360 25.6
2020-Aug-08 13:15 350 0 gusting 4 25.0
2020-Aug-08 13:03 360 24.4
2020-Aug-08 13:00 049 2 23.3
2020-Aug-08 12:46 346 23.3
2020-Aug-08 12:45 014 2 22.8
2020-Aug-08 12:32 346 0 gusting 5 22.8
2020-Aug-08 12:17 071 2 21.7
2020-Aug-08 12:01 047 2 21.7
2020-Aug-08 11:48 042 2 21.1
2020-Aug-08 11:31 046 1 20.6
2020-Aug-08 11:15 241 20.0
2020-Aug-08 11:00 241 20.0
2020-Aug-08 10:47 355 3 20.6
2020-Aug-08 10:32 005 2 20.6
2020-Aug-08 10:16 033 1 20.0
2020-Aug-08 10:01 053 1 20.6
2020-Aug-08 09:47 024 0 20.6
2020-Aug-08 09:30 020 1 20.6
2020-Aug-08 09:15 191 20.6
2020-Aug-08 09:00 191 20.6
2020-Aug-08 08:46 191 20.6
2020-Aug-08 08:45 046 1 20.6
2020-Aug-08 08:30 191 20.6
2020-Aug-08 08:17 355 0 21.1
2020-Aug-08 08:01 355 1 21.1
2020-Aug-08 07:47 355 1 21.1
2020-Aug-08 07:31 355 0 21.1
2020-Aug-08 07:16 355 0 21.1
2020-Aug-08 07:02 355 21.1
2020-Aug-08 07:00 355 21.1
2020-Aug-08 06:47 355 0 21.1
2020-Aug-08 06:34 017 1 21.1
2020-Aug-08 06:15 191 21.1
2020-Aug-08 06:02 017 1 21.1
2020-Aug-08 05:46 190 21.1
2020-Aug-08 05:32 035 2 21.1
2020-Aug-08 05:17 022 1 21.1
2020-Aug-08 05:01 029 1 21.1
2020-Aug-08 04:46 056 1 21.1
2020-Aug-08 04:31 040 1 21.1
2020-Aug-08 04:16 040 1 21.7
2020-Aug-08 04:02 056 2 21.7
2020-Aug-08 03:47 094 2 21.7
2020-Aug-08 03:32 096 3 21.7
2020-Aug-08 03:15 051 0 21.7
2020-Aug-08 03:01 036 0 21.7
2020-Aug-08 02:47 036 1 21.7
2020-Aug-08 02:31 054 1 21.7
2020-Aug-08 02:16 044 2 21.7
2020-Aug-08 02:01 038 0 21.7
2020-Aug-08 01:46 049 0 21.7
2020-Aug-08 01:30 030 0 22.2
2020-Aug-08 01:15 052 1 22.2
2020-Aug-08 01:01 074 2 22.8
2020-Aug-08 00:45 092 1 22.8
2020-Aug-08 00:30 085 2 22.8
2020-Aug-08 00:15 102 4 22.8
2020-Aug-08 00:01 131 3 22.8
2020-Aug-07 23:46 083 3 22.8
2020-Aug-07 23:30 099 4 22.8
2020-Aug-07 23:16 081 4 22.8
2020-Aug-07 23:01 108 5 23.3
2020-Aug-07 22:45 113 5 23.3
2020-Aug-07 22:30 124 6 23.9
2020-Aug-07 22:15 095 5 24.4
2020-Aug-07 22:00 119 6 24.4
2020-Aug-07 21:45 117 6 24.4
2020-Aug-07 21:30 126 6 25.0
2020-Aug-07 21:15 130 6 25.0
2020-Aug-07 21:00 126 6 25.0
2020-Aug-07 20:45 126 7 25.6
2020-Aug-07 20:31 097 8 25.0
2020-Aug-07 20:15 128 10 25.0
2020-Aug-07 20:00 125 7 25.6
2020-Aug-07 19:45 115 7 25.6
2020-Aug-07 19:30 080 6 25.0
2020-Aug-07 19:01 115 8 25.6
2020-Aug-07 18:46 126 9 26.7
2020-Aug-07 18:32 138 8 26.7
2020-Aug-07 18:02 117 7 26.7
2020-Aug-07 17:46 128 6 26.1
2020-Aug-07 17:31 134 5 26.1
2020-Aug-07 17:01 101 3 25.0
2020-Aug-07 16:46 045 2 24.4
2020-Aug-07 16:31 016 5 23.9
2020-Aug-07 16:01 044 4 23.3
2020-Aug-07 15:46 027 5 22.8
2020-Aug-07 15:30 360 4 22.8
2020-Aug-07 15:00 355 6 21.1
2020-Aug-07 14:45 017 5 20.0
2020-Aug-07 14:30 021 5 19.4
2020-Aug-07 14:00 342 3 19.4
2020-Aug-07 13:45 011 2 19.4
2020-Aug-07 13:30 351 1 19.4
2020-Aug-07 13:01 013 2 20.0
2020-Aug-07 12:45 313 1 20.6
2020-Aug-07 12:30 355 1 20.6
2020-Aug-07 12:00 005 2 20.6
2020-Aug-07 11:45 348 2 20.6
2020-Aug-07 11:30 344 0 20.6
2020-Aug-07 11:00 032 1 20.0
2020-Aug-07 10:45 341 2 20.0
2020-Aug-07 10:30 350 2 20.0